Regional Weather Roundup
Issued by NWS

Home | Current Version | Previous Version | Text Only | Print | Product List | Glossary Off
Versions: 1 2 3 4 5 6 7 8 9 10 11 12 13 14 15 16 17 18 19 20 21 22 23 24 25 26 27 28 29 30 31 32 33 34 35 36 37 38 39 40 41 42 43 44 45 46 47 48 49 50

000
ASUS45 KCYS 270010
RWRWY

WYOMING REGIONAL WEATHER ROUNDUP
NATIONAL WEATHER SERVICE CHEYENNE WY
500 PM MST MON JAN 26 2015

NOTE:  "FAIR" INDICATES FEW OR NO CLOUDS BELOW 12,000 FEET
WITH NO SIGNIFICANT WEATHER AND/OR OBSTRUCTIONS TO VISIBILITY.

WYZ001-270100-
YELLOWSTONE NATIONAL PARK

CITY           SKY/WX    TMP DP  RH WIND       PRES   REMARKS
LK YELLOWSTONE   N/A     28  23  81 CALM      30.35R
6HR MIN TEMP:  18; 6HR MAX TEMP:  35;

W YELLOWSTONE  NOT AVBL

$$
WYZ002>013-054>058-071-098>099-270100-
NORTHERN WYOMING

CITY           SKY/WX    TMP DP  RH WIND       PRES   REMARKS
JACKSON        CLEAR     21  23 100 CALM      30.34R
CODY           FAIR      39  34  81 CALM      30.14S
GREYBULL       FAIR      34  27  75 NW6       30.15S WCI  29
6HR MIN TEMP:  27; 6HR MAX TEMP:  41;

WORLAND        FAIR      31  26  82 SW5       30.14F WCI  26
6HR MIN TEMP:  27; 6HR MAX TEMP:  37;

SHERIDAN       FAIR      52  30  43 SW8       30.03F
6HR MIN TEMP:  50; 6HR MAX TEMP:  66;

BUFFALO          N/A     51  30  44 W9        30.10S
GILLETTE       FAIR      53  33  46 SW16      30.06F
HULETT           N/A    N/A N/A N/A MISG        N/A
NEWCASTLE      FAIR      54  30  40 CALM      30.08F

$$
WYZ014>020-022>026-101>103-270100-
CENTRAL WYOMING

CITY           SKY/WX    TMP DP  RH WIND       PRES   REMARKS
BIG PINEY      FAIR      40  27  59 E7        30.33F
6HR MIN TEMP:  31; 6HR MAX TEMP:  44;

PINEDALE       FAIR      32  27  80 NW6       30.34S WCI  26
DUBOIS         FAIR      52  21  30 NW7       30.24S
LANDER         FAIR      40  29  64 NW3       30.20S
6HR MIN TEMP:  35; 6HR MAX TEMP:  44;

RIVERTON       FAIR      41  28  60 NE6       30.21F
6HR MIN TEMP:  35; 6HR MAX TEMP:  44;

CASPER         FAIR      48  29  47 SW12      30.18F
6HR MIN TEMP:  48; 6HR MAX TEMP:  54;

DOUGLAS        FAIR      56  26  31 NW9       30.15S
6HR MIN TEMP:  54; 6HR MAX TEMP:  65;


$$
WYZ021-027>030-104>119-270100-
SOUTHERN WYOMING

CITY           SKY/WX    TMP DP  RH WIND       PRES   REMARKS
EVANSTON       FAIR      49  31  49 CALM      30.29F
6HR MIN TEMP:  39; 6HR MAX TEMP:  50;

KEMMERER       FAIR      46  28  49 CALM      30.31F
FORT BRIDGER   FAIR      49  33  55 N3        30.33F
ROCK SPRINGS   FAIR      49  27  42 E5        30.30S
6HR MIN TEMP:  43; 6HR MAX TEMP:  53;

DIXON          FAIR      42  30  64 CALM      30.36S
RAWLINS        FAIR      46  26  45 W8        30.32S
6HR MIN TEMP:  46; 6HR MAX TEMP:  53;

SARATOGA       FAIR      45  28  53 CALM      30.32F
LARAMIE        FAIR      42  27  55 NE9       30.30R
6HR MIN TEMP:  42; 6HR MAX TEMP:  60;

CHEYENNE       FAIR      59  21  23 W8        30.22S
6HR MIN TEMP:  59; 6HR MAX TEMP:  67;

TORRINGTON     FAIR      58  29  33 W10       30.11S
6HR MIN TEMP:  57; 6HR MAX TEMP:  69;

PINE BLUFFS    FAIR      52  27  37 N10       30.18S

$$


USA.gov is the U.S. government's official web portal to all federal, state and local government web resources and services.